Location: Austin, TX
(30.3000°N, 97.7500°W)
Time: 16:28:08
(UTC-06:00)

Daily predictions for brighter satellites

Satellite Brightness Start Highest point End
(mag) Time Altitude Azimuth Time Altitude Azimuth Time Altitude Azimuth
CORIOLIS 4.2 17:54:25 10° SSE 17:59:39 61° ENE 18:04:54 10° N
YAOGAN 1 4.0 17:54:30 10° S 17:58:36 43° W 18:02:44 10° NNW
Cosmos 2333 Rocket 2.2 17:55:43 10° NNW 18:01:23 83° ENE 18:07:03 10° SSE
Cosmos 1340 Rocket 3.3 17:58:18 10° N 18:02:03 39° E 18:05:48 10° SSE
MOZ.5/SAFIR/RUBIN 5/SL-8 4.0 18:01:38 10° NNE 18:06:07 48° E 18:10:34 10° S
Cosmos 1727 Rocket 4.1 18:02:00 10° N 18:08:22 88° W 18:14:41 10° S
Cosmos 1937 Rocket 4.3 18:04:23 10° NNW 18:09:30 58° WSW 18:14:32 10° S
CZ-4 DEB 3.5 18:05:43 10° SE 18:09:11 40° ENE 18:12:39 10° N
SJ-6B 2.7 18:06:13 10° SSE 18:10:00 69° ENE 18:13:54 10° N
Cosmos 2227 Rocket 4.4 18:06:29 10° WSW 18:10:41 21° WNW 18:14:54 10° NNW
ATLAS 2AS CENTAUR R/B 3.2 18:09:19 10° NNW 18:17:10 52° ENE 18:24:37 10° SE
Cosmos 1066 Rocket 4.4 18:09:27 10° SSE 18:14:34 47° E 18:19:49 10° NNE
Cosmos-2242 3.0 18:09:55 10° N 18:14:17 67° E 18:18:35 10° SSE
Spot 2 Rocket 3.7 18:11:05 10° S 18:16:11 78° WSW 18:21:18 10° NNW
FALCON 9 R/B 2.9 18:11:11 10° WNW 18:15:24 63° N 18:29:38 10° E
Geosat 4.1 18:13:48 10° SSE 18:18:49 87° WSW 18:23:51 10° NNW
COSMO-SKYMED 1 2.7 18:16:10 10° NNE 18:20:24 53° E 18:24:37 10° S
Cosmos 405 3.7 18:16:26 10° SSW 18:20:00 59° W 18:23:36 10° N
Lacrosse 4 Rocket 1.9 18:17:20 10° N 18:21:27 39° ENE 18:25:27 10° SE
CZ-4C R/B 3.7 18:19:03 10° NW 18:26:07 56° WSW 18:33:34 10° S
GPS 2-04 Rocket1 2.4 18:19:39 10° WSW 18:23:12 73° NNW 18:25:45 17° ENE
Cosmos 1603 4.4 18:20:27 10° N 18:25:21 31° ENE 18:30:14 10° SE
Cosmos 2219 Rocket 4.2 18:25:42 10° NW 18:30:34 31° WSW 18:35:25 10° SSW
CZ-4B R/B 4.4 18:28:52 15° NE 18:31:34 24° E 18:35:22 10° SSE
ATLAS CENTAUR R/B 3.1 18:30:13 10° SE 18:32:02 13° ESE 18:32:05 13° ESE
SJ-7 4.3 18:35:25 10° SSE 18:39:33 84° ENE 18:43:38 10° N
Okean 3 Rocket 3.8 18:37:39 10° S 18:42:05 74° W 18:46:35 10° N
Cosmos 1515 3.9 18:37:43 10° S 18:41:37 77° W 18:45:32 10° N
Cosmos 2237 Rocket 4.3 18:38:23 10° NW 18:43:09 29° WSW 18:47:55 10° SSW
Cosmos 2297 Rocket 4.5 18:39:09 10° WSW 18:43:14 20° WNW 18:47:20 10° NNW
PAYLOAD C 4.4 18:39:17 10° S 18:43:25 86° WSW 18:47:31 10° NNW
CZ-2C R/B 1.1 18:41:09 10° SSE 18:44:23 74° ENE 18:47:38 10° N
MONITOR-E 4.4 18:45:53 10° S 18:49:20 87° W 18:52:49 10° NNW
Cosmos 540 Rocket 3.3 18:46:30 10° SSW 18:51:35 82° ESE 18:56:13 13° NNE
Cosmos 2123 Rocket 4.3 18:48:23 10° N 18:54:12 41° E 19:00:03 10° SSE
Resurs 1-3 3.9 18:50:37 10° S 18:54:57 68° WSW 18:59:20 10° NNW
Kakehashi 4.2 18:53:45 10° W 18:59:34 90° S 19:07:21 23° E
Cosmos 923 Rocket 4.3 18:54:11 10° S 18:59:13 45° ESE 19:01:16 31° NE
ATLAS 5 CENTAUR R/B 2.2 18:56:52 10° S 19:01:36 46° ESE 19:03:04 36° ENE
Hubble Space Telescope 1.1 18:59:14 10° W 19:03:21 61° S 19:04:48 36° ESE
Cosmos 1605 Rocket 3.9 18:59:52 10° S 19:05:58 65° E 19:11:59 10° NNE
PAYLOAD A 3.7 19:01:40 10° SSE 19:06:20 67° ENE 19:11:09 10° N
Meteor 2-13 Rocket 4.3 19:02:12 10° S 19:08:13 74° E 19:14:14 10° N
Meteosat 1 Rocket2 4.0 19:03:08 10° WSW 19:08:22 72° S 19:12:05 31° E
Meteor 1-4 Rocket 2.4 19:04:44 10° S 19:08:17 84° W 19:09:29 40° N
Aureole 2 Rocket 4.3 19:05:16 10° N 19:08:11 29° NNE 19:08:11 29° NNE
Resurs 01 Rocket 4.1 19:05:42 10° SSW 19:09:15 24° W 19:12:48 10° NW
PSLV R/B 3.6 19:06:32 10° WSW 19:09:36 78° WNW 19:09:36 78° WNW
Cosmos 1766 3.1 19:07:03 10° N 19:11:05 75° E 19:15:06 10° S
SL-24 R/B - RUBIN 2 3.7 19:08:40 10° NNW 19:13:23 76° ENE 19:18:38 10° SSE
SAR-Lupe-2 4.1 19:08:53 10° S 19:12:23 59° W 19:15:54 10° NNW
SL-16 R/B 3.9 19:10:19 10° NW 19:15:20 34° WSW 19:20:20 10° SSW
Cosmos 1934 Rocket 4.3 19:10:41 10° SSW 19:16:55 70° W 19:23:15 10° N
SEDSat Delta rocket 4.3 19:11:41 10° SW 19:17:20 49° SSE 19:19:17 37° ESE
CZ-2C R/B 2.3 19:13:49 10° SSE 19:21:53 17° N 19:23:02 10° N
NOSS 3-3 (A) 4.2 19:16:53 10° SW 19:23:08 69° WNW 19:27:02 26° NNE
NOSS 3-3 (C) 4.2 19:16:58 10° SW 19:23:15 70° WNW 19:27:07 26° NNE
Cosmos 1842 3.6 19:18:20 10° SSW 19:22:15 66° W 19:23:33 39° NNW
BREEZE M DEB (TANK) 3.5 19:19:36 10° NW 19:32:08 56° NNE 19:32:35 54° NE
BREEZE-M DEB (TANK) 3.8 19:21:10 10° NW 19:39:37 58° NNE 19:40:25 55° ENE
Cosmos 2263 Rocket 2.9 19:25:43 10° S 19:29:37 37° SE 19:29:37 37° SE
NOAA 12 4.1 19:30:28 10° S 19:35:42 81° WSW 19:40:56 10° NNW
Cosmos 372 Rocket 3.9 19:30:33 10° NNW 19:35:48 85° WSW 19:41:00 10° SSE
Cosmos 1743 Rocket 4.4 19:30:42 10° S 19:33:40 41° S 19:33:40 41° S
Delta 128 4.0 19:32:12 10° WSW 19:37:22 56° S 19:37:22 56° S
Cosmos 1953 3.2 19:38:18 45° SSW 19:38:18 45° SSW 19:41:16 10° S
Cosmos 1680 Rocket 3.4 19:34:59 10° SSW 19:40:16 88° ESE 19:40:23 86° NE
Milstar 3 4.1 19:35:39 10° WSW 19:45:01 77° SSE 19:51:53 41° E
Cosmos 773 Rocket 4.3 19:47:42 10° SSW 19:52:52 60° WNW 19:53:12 59° NW
Delta 2 Rocket 4.4 19:49:48 10° WSW 19:55:09 44° S 19:55:09 44° S
USA 234 3.6 20:05:40 53° NNW 20:05:40 53° NNW 20:10:40 10° NW
ATLAS CENTAUR R/B 4.0 20:07:49 10° WSW 20:08:46 16° WSW 20:08:46 16° WSW
